Regional Weather Roundup
Issued by NWS

Home | Current Version | Previous Version | Text Only | Print | Product List | Glossary On
Versions: 1 2 3 4 5 6 7 8 9 10 11 12 13 14 15 16 17 18 19 20 21 22 23 24 25 26 27 28 29 30 31 32 33 34 35 36 37 38 39 40 41 42 43 44 45 46
000
ASUS45 KBOU 202310
RWRCO

WEATHER ROUNDUP FOR COLORADO
NATIONAL WEATHER SERVICE PUEBLO CO
500 PM MDT FRI APR 20 2018

NOTE: "FAIR" INDICATES FEW OR NO CLOUDS BELOW 12000 FEET WITH NO
SIGNIFICANT WEATHER AND/OR OBSTRUCTIONS TO VISIBILITY.

COZ001>005-013-030-031-210000-
...NORTHWEST COLORADO...

CITY           SKY/WX    TMP DP  RH WIND       PRES   REMARKS
CRAIG          LGT RAIN  39  36  89 S12       29.94R
HAYDEN         LGT RAIN  36  35  96 SW8       29.97R FOG
MEEKER         LGT SNOW  34  32  92 SW6       30.00R VSB 3/4 WCI  29
RABBIT EARS PA NOT AVBL
STEAMBOAT SPGS CLOUDY    36  35  98 SW6       29.96R
WALDEN         CLOUDY    41  28  60 S3        29.94R
$$

COZ006>008-011-210000-
...WEST CENTRAL VALLEYS...

CITY           SKY/WX    TMP DP  RH WIND       PRES   REMARKS
GRAND JUNCTION CLOUDY    49  29  46 SW9       29.98S
MONTROSE       PTSUNNY   50  23  34 NW16G23   30.00R
EAGLE          LGT RAIN  39  30  70 SW24G31   29.97R
RIFLE          LGT RAIN  37  34  89 S6        30.02S
DELTA          NOT AVBL
NUCLA          CLOUDY    50  14  23 S5        30.00R
$$

COZ017>023-064>068-210000-
...SOUTHWEST COLORADO...

CITY           SKY/WX    TMP DP  RH WIND       PRES   REMARKS
DURANGO        MOSUNNY   47  14  26 W14       29.95S
CORTEZ         CLOUDY    47  22  37 W3        29.99R
PAGOSA SPRINGS CLOUDY    45  11  25 W10G17    29.97R
TELLURIDE      CLOUDY    32  22  67 CALM      30.04R
WOLF CREEK PAS CLOUDY    19  14  79 W7        30.06R WCI  10
$$

COZ009-010-012-014-032>034-037-058>063-210000-
...CENTRAL COLORADO...

CITY           SKY/WX    TMP DP  RH WIND       PRES   REMARKS
ASPEN          LGT SNOW  32  31  96 N8G23     29.98R VSB 3/4 WCI  25
BUENA VISTA    FLURRIES  34  31  88 SE5       29.96R WCI  30
COPPER MTN     NOT AVBL
BERTHOUD PASS  CLOUDY    21  12  68 S16       30.00S WCI   7
COTTONWOOD PAS CLOUDY    32  27  80 W10G21    29.98R WCI  24
GUNNISON       CLOUDY    39  19  44 N13       29.98R
KREMMLING      CLOUDY    45  37  76 CALM      29.94S
LEADVILLE      LGT SNOW  28  25  88 VRB5      29.95R FOG     WCI  23
MONARCH PASS   CLOUDY    18  16  93 W24       30.09R WCI   0
SALIDA         CLOUDY    40  28  62 W12G20    30.02F
SUNLIGHT       SNOW      23  19  86 SW10G24   30.04R VSB 1/2 WCI  12
WILKERSON PASS FOG       28  27  93 CALM      30.00S VSB 1/2
$$

COZ069>075-210000-
...SAN LUIS VALLEY/SANGRE DE CRISTO MOUNTAINS...

CITY           SKY/WX    TMP DP  RH WIND       PRES   REMARKS
ALAMOSA        PTSUNNY   46   8  21 W26G32    29.92R
DEL NORTE      FAIR      42  12  30 W24G33    29.94R
LA VETA PASS   MOSUNNY   34  27  75 S22G37    30.03R WCI  22
SAGUACHE       NOT AVBL
$$

COZ035-036-038>040-210000-
...NORTHERN COLORADO FRONT RANGE...

CITY           SKY/WX    TMP DP  RH WIND       PRES   REMARKS
DENVER INTL AP CLOUDY    45  31  58 S29G40    29.95R
DMNS CITY PARK NOT AVBL
AURORA         LGT RAIN  41  37  85 S20       29.95R FOG
FRONT RANGE AP CLOUDY    45  32  61 SE24G37   29.97R
ERIE MUNI ARPT RAIN      48  35  59 NW8       29.98R
BOULDER MUN AP RAIN      45  39  81 W7        29.93R
CENTENNIAL     LGT RAIN  36  35  96 S10       29.95R FOG
BROOMFIELD     RAIN      45  37  76 W14       29.94R
LOVELAND       LGT RAIN  46  36  68 SE25G35   29.93R
LONGMONT       LGT RAIN  48  39  70 W7        29.94R
$$

COZ041-046-047-076>085-087-088-210000-
...PIKES PEAK/PALMER DIVIDE AND SOUTHERN FOOTHILLS...

CITY           SKY/WX    TMP DP  RH WIND       PRES   REMARKS
COLO. SPRINGS  CLOUDY    39  35  86 SE21G30   29.96R
A. F. ACADEMY  CLOUDY    34  34 100 S2        29.96R
SCHRIEVER AFB  NOT AVBL
CHEYENNE MTN   NOT AVBL
ELLICOTT         N/A    N/A N/A N/A SE28G36   29.95R
FALCON         CLOUDY    33  33  99 SE15G24   29.97F FOG     WCI  23
FORT CARSON    CLOUDY    41  36  81 E22       29.95R
LIMON          CLOUDY    34  34 100 SE21G31   30.01S WCI  22
MONUMENT HILL  CLOUDY    34  32  93 SE17      29.96F WCI  23
CANON CITY     FAIR      50  36  57 NE24G35   29.87R
WALSENBURG     NOT AVBL
TRINIDAD       CLOUDY    45  35  68 VRB3      29.90S
$$

COZ042>045-048>051-090-091-210000-
...NORTHEAST COLORADO...

CITY           SKY/WX    TMP DP  RH WIND       PRES   REMARKS
GREELEY ARPT   CLOUDY    45  32  60 SE24G33   29.98R
AKRON          LGT SNOW  34  34 100 SE25G35   30.05R FOG     WCI  21
BURLINGTON     LGT RAIN  39  38  96 SE18G26   30.07F
WRAY           LGT RAIN  41  37  87 E13G20    30.12S
YUMA           NOT AVBL
STERLING       NOT AVBL
HOLYOKE        LGT RAIN  41  37  87 SE23      30.14R
FORT MORGAN    CLOUDY    39  32  76 SE21G30   30.03S
$$

COZ086-089-092>099-210000-
...SOUTHEAST COLORADO...

CITY           SKY/WX    TMP DP  RH WIND       PRES   REMARKS
PUEBLO         CLOUDY    53  38  56 E30G39    29.87R
LA JUNTA       CLOUDY    44  40  85 E18       30.00R
LAMAR          RAIN      42  38  85 E14G24    30.01R FOG
SPRINGFIELD      N/A     42  38  85 E13       30.00R
$$





USA.gov is the U.S. government's official web portal to all federal, state and local government web resources and services.